Le nostre stazioni meteo in Italia

Pubblicità
Il mio iltempo24.it
Catania/Sigonella, Italia (16459): Temperatura & dewpoint: 18.06.2018 22:00:00 - 24.06.2018 22:00:00 (CEST)Catania/Sigonella, Italia (16459): velocità del vento: 18.06.2018 22:00:00 - 24.06.2018 22:00:00 (CEST)Catania/Sigonella, Italia (16459): direzione del vento: 18.06.2018 22:00:00 - 24.06.2018 22:00:00 (CEST)Catania/Sigonella, Italia (16459): reduced air pressure: 18.06.2018 22:00:00 - 24.06.2018 22:00:00 (CEST)Catania/Sigonella, Italia (16459): visibility: 18.06.2018 22:00:00 - 24.06.2018 22:00:00 (CEST)
Data & Tempo tt [°C] td [°C] ff [km/h] ff [kn] dd ppp [hPa] vv [km]
24.06.2018 22:00:00 - - - - - - -
24.06.2018 21:00:00 23,0 23,0 11 6 ENE - 10
24.06.2018 20:00:00 22,8 22,5 16 9 ENE 1014,4 13
24.06.2018 19:00:00 23,0 23,0 15 8 ENE - 10
24.06.2018 18:00:00 23,0 22,0 18 10 N - 10
24.06.2018 17:00:00 23,8 22,3 22 12 ENE 1014,8 15
24.06.2018 16:00:00 25,0 22,0 24 13 ENE - 10
24.06.2018 15:00:00 26,0 22,0 29 16 E - 10
24.06.2018 14:00:00 25,6 21,5 28 15 E 1016,0 15
24.06.2018 13:00:00 25,0 22,0 22 12 ENE - 10
24.06.2018 12:00:00 25,0 23,0 18 10 ENE - 10
24.06.2018 11:00:00 23,2 22,9 11 6 E 1016,1 10
24.06.2018 10:00:00 21,0 21,0 8 4 NE - 9
24.06.2018 09:00:00 21,0 20,0 2 1 N - 9
24.06.2018 08:00:00 18,2 18,2 8 4 O 1015,5 10
24.06.2018 07:00:00 18,0 18,0 5 3 OSO - 10
24.06.2018 06:00:00 18,0 18,0 5 3 O - 7
24.06.2018 05:00:00 18,8 18,8 9 5 SO 1015,2 10
24.06.2018 04:00:00 21,0 21,0 4 2 ONO - 10
24.06.2018 03:00:00 21,0 21,0 4 2 O - 10
24.06.2018 02:00:00 21,8 21,8 5 3 OSO 1015,5 10
24.06.2018 01:00:00 22,0 22,0 8 4 OSO - 10
24.06.2018 00:00:00 23,0 23,0 13 7 E - 10
23.06.2018 23:00:00 23,6 23,6 18 10 E 1015,4 10
23.06.2018 22:00:00 24,0 24,0 18 10 ENE - 10
23.06.2018 21:00:00 24,0 24,0 24 13 E - 10
23.06.2018 20:00:00 25,6 23,3 29 16 E 1014,1 14
23.06.2018 19:00:00 26,0 24,0 35 19 E - 10
23.06.2018 18:00:00 27,0 24,0 35 19 E - 10
23.06.2018 17:00:00 27,2 22,6 35 19 E 1014,3 14
23.06.2018 16:00:00 29,0 23,0 35 19 E - 10
23.06.2018 15:00:00 30,0 20,0 31 17 E - 10
23.06.2018 14:00:00 30,0 16,4 28 15 E 1014,9 16
23.06.2018 13:00:00 30,0 16,0 28 15 E - 10
23.06.2018 12:00:00 31,0 17,0 21 11 E - 10
23.06.2018 11:00:00 29,8 18,3 4 2 E 1015,0 16
23.06.2018 10:00:00 27,0 19,0 5 3 ONO - 10
23.06.2018 09:00:00 25,0 19,0 8 4 NO - 10
23.06.2018 08:00:00 23,2 23,2 5 3 O 1015,4 9
23.06.2018 07:00:00 20,0 20,0 9 5 OSO - 7
23.06.2018 06:00:00 18,0 18,0 4 2 OSO - 6
23.06.2018 05:00:00 20,0 20,0 5 3 O 1014,4 12
23.06.2018 04:00:00 21,0 21,0 13 7 O - 10
23.06.2018 03:00:00 22,0 22,0 16 9 ONO - 10
23.06.2018 02:00:00 22,0 22,0 16 9 ONO 1014,5 12
23.06.2018 01:00:00 22,0 22,0 13 7 ONO - 10
23.06.2018 00:00:00 22,0 22,0 11 6 O - 10
22.06.2018 23:00:00 22,6 22,6 13 7 O 1014,5 10
22.06.2018 22:00:00 23,0 23,0 9 5 O - 10
22.06.2018 21:00:00 23,0 23,0 9 5 O - 10
22.06.2018 20:00:00 23,8 23,8 5 3 NNO 1014,1 10
22.06.2018 19:00:00 24,0 24,0 8 4 ONO - 10
22.06.2018 18:00:00 22,0 22,0 15 8 O - 10
22.06.2018 17:00:00 23,8 23,8 11 6 ONO 1014,7 7
22.06.2018 16:00:00 27,0 21,0 31 17 ENE - 10
22.06.2018 15:00:00 29,0 18,0 28 15 ENE - 10
22.06.2018 14:00:00 30,8 19,8 29 16 E 1014,1 10
22.06.2018 13:00:00 33,0 17,0 13 7 ONO - 10
22.06.2018 12:00:00 31,0 19,0 11 6 ONO - 10
22.06.2018 11:00:00 28,6 20,6 15 8 O 1015,7 10
22.06.2018 10:00:00 27,0 22,0 11 6 OSO - 10
22.06.2018 09:00:00 24,0 24,0 8 4 ONO - 10
22.06.2018 08:00:00 21,4 21,4 9 5 O 1015,7 15
22.06.2018 07:00:00 18,0 18,0 4 2 OSO - 10
22.06.2018 06:00:00 17,0 17,0 5 3 ONO - 10
22.06.2018 05:00:00 17,2 17,2 8 4 OSO 1015,7 12
22.06.2018 04:00:00 17,0 17,0 8 4 OSO - 10
22.06.2018 03:00:00 19,0 19,0 9 5 O - 10
22.06.2018 02:00:00 19,4 19,4 8 4 O 1016,2 12
22.06.2018 01:00:00 19,0 19,0 8 4 O - 10
22.06.2018 00:00:00 19,0 19,0 8 4 OSO - 10
21.06.2018 23:00:00 20,6 20,6 11 6 O 1016,8 12
21.06.2018 22:00:00 21,0 21,0 13 7 O - 10
21.06.2018 21:00:00 21,0 21,0 4 2 O - 10
21.06.2018 20:00:00 21,2 21,2 11 6 SO 1016,5 12
21.06.2018 19:00:00 21,0 21,0 16 9 O - 10
21.06.2018 18:00:00 21,0 21,0 16 9 ONO - 8
21.06.2018 17:00:00 22,4 22,2 21 11 ONO 1017,8 6
21.06.2018 16:00:00 24,0 21,0 31 17 O - 10
21.06.2018 15:00:00 29,0 18,0 24 13 S - 10
21.06.2018 14:00:00 31,8 21,0 22 12 ESE 1017,1 10
21.06.2018 13:00:00 30,0 19,0 31 17 SE - 10
21.06.2018 12:00:00 31,0 20,0 8 4 ONO - 10
21.06.2018 11:00:00 29,2 19,5 8 4 SO 1018,2 12
21.06.2018 10:00:00 28,0 20,0 5 3 OSO - 10
21.06.2018 09:00:00 25,0 21,0 9 5 ONO - 10
21.06.2018 08:00:00 23,2 21,7 9 5 OSO 1018,4 15
21.06.2018 07:00:00 19,0 19,0 9 5 O - 10
21.06.2018 06:00:00 19,0 19,0 9 5 ONO - 10
21.06.2018 05:00:00 18,0 18,0 8 4 O 1018,2 12
21.06.2018 04:00:00 18,0 18,0 5 3 OSO - 10
21.06.2018 03:00:00 20,0 20,0 9 5 O - 10
21.06.2018 02:00:00 20,2 20,2 5 3 O 1018,5 13
21.06.2018 01:00:00 21,0 21,0 8 4 O - 10
21.06.2018 00:00:00 21,0 21,0 5 3 O - 10
20.06.2018 23:00:00 22,2 22,2 8 4 ENE 1018,3 15
20.06.2018 22:00:00 23,0 23,0 8 4 ENE - 10
20.06.2018 21:00:00 23,0 23,0 8 4 ENE - 10
20.06.2018 20:00:00 25,2 20,9 16 9 ENE 1016,8 14
20.06.2018 19:00:00 26,0 20,0 21 11 ENE - 10
20.06.2018 18:00:00 28,0 20,0 13 7 NNE - 10
20.06.2018 17:00:00 27,0 22,6 13 7 NO 1017,1 12
20.06.2018 16:00:00 27,0 23,0 18 10 NO - 10
20.06.2018 15:00:00 27,0 23,0 18 10 NO - 10
20.06.2018 14:00:00 26,4 22,5 9 5 ENE 1017,9 12
20.06.2018 13:00:00 26,0 23,0 15 8 ESE - 10
20.06.2018 12:00:00 26,0 23,0 29 16 E - 10
20.06.2018 11:00:00 27,4 21,4 26 14 E 1017,3 12
20.06.2018 10:00:00 28,0 22,0 16 9 ENE - 10
20.06.2018 09:00:00 27,0 24,0 13 7 ENE - 10
20.06.2018 08:00:00 22,4 22,4 8 4 O 1017,4 12
20.06.2018 07:00:00 20,0 20,0 8 4 O - 10
20.06.2018 06:00:00 19,0 19,0 4 2 SSO - 10
20.06.2018 05:00:00 19,0 19,0 5 3 SO 1016,3 10
20.06.2018 04:00:00 19,0 19,0 5 3 OSO - 10
20.06.2018 03:00:00 21,0 21,0 8 4 OSO - 10
20.06.2018 02:00:00 21,0 21,0 9 5 OSO 1016,0 10
20.06.2018 01:00:00 22,0 22,0 4 2 O - 10
20.06.2018 00:00:00 23,0 23,0 11 6 O - 10
19.06.2018 23:00:00 23,0 22,7 8 4 O 1015,5 10
19.06.2018 22:00:00 24,0 22,0 4 2 ONO - 10
19.06.2018 21:00:00 25,0 23,0 5 3 OSO - 10
19.06.2018 20:00:00 25,6 22,1 11 6 O 1015,0 15
19.06.2018 19:00:00 26,0 23,0 15 8 O - 10
19.06.2018 18:00:00 26,0 22,0 16 9 ONO - 10
19.06.2018 17:00:00 26,0 21,2 13 7 O 1014,6 16
19.06.2018 16:00:00 28,0 20,0 13 7 ENE - 10
19.06.2018 15:00:00 29,0 19,0 26 14 ENE - 10
19.06.2018 14:00:00 31,2 18,9 26 14 E 1013,4 15
19.06.2018 13:00:00 31,0 18,0 24 13 E - 10
19.06.2018 12:00:00 32,0 19,0 15 8 E - 10
19.06.2018 11:00:00 29,8 18,0 8 4 S 1014,0 15
19.06.2018 10:00:00 28,0 19,0 4 2 NNE - 10
19.06.2018 09:00:00 25,0 18,0 9 5 ONO - 10
19.06.2018 08:00:00 22,2 19,0 11 6 O 1013,8 10
19.06.2018 07:00:00 20,0 20,0 9 5 O - 10
19.06.2018 06:00:00 19,0 19,0 8 4 O - 10
19.06.2018 05:00:00 19,8 19,8 9 5 O 1012,9 10
19.06.2018 04:00:00 20,0 20,0 8 4 O - 10
19.06.2018 03:00:00 20,0 20,0 9 5 ONO - 10
19.06.2018 02:00:00 20,2 20,2 11 6 OSO 1012,8 10
19.06.2018 01:00:00 22,0 22,0 5 3 N - 10
19.06.2018 00:00:00 22,0 22,0 5 3 NNO - 10
18.06.2018 23:00:00 22,8 22,8 4 2 ENE 1013,2 10
18.06.2018 22:00:00 23,0 23,0 13 7 SE - 10

tt = Temperatura
td = dewpoint
ff = velocità del vento
dd = direzione del vento
ppp = reduced air pressure
vv = visibility

Stazioni seguenti

WeatherPro
AMSI
MeteoEarth